N263TH KSSI-KTEB

Flight info

Callsign N263TH
Flight time 1h 45m
Altitude 41000
Route BROUN JROSS Q87 RAYVO FLO DADDS NOWAE SWNGR JAIKE4
Aircraft C700/M-SBDGHM1RWXY/LB2

Departure

Time 2026-05-03 23:27
Airport St Simons Island Airport (KSSI)

Arrival

Time 2026-05-04 01:12
Airport Teterboro Airport (KTEB)
Time Latitude Longitude Altitude Speed Heading
2026-05-03 23:18 31.15419 -81.38658 20 ft 0 kts 65°
2026-05-03 23:24 31.15422 -81.38657 22 ft 1 kts 25°
2026-05-03 23:24 31.15434 -81.38665 20 ft 6 kts 324°
2026-05-03 23:24 31.15461 -81.38695 21 ft 9 kts 316°
2026-05-03 23:24 31.15524 -81.38755 21 ft 9 kts 330°
2026-05-03 23:25 31.15578 -81.38787 23 ft 8 kts 334°
2026-05-03 23:25 31.15636 -81.38819 22 ft 10 kts 335°
2026-05-03 23:25 31.15674 -81.38841 24 ft 0 kts 334°
2026-05-03 23:25 31.15684 -81.38846 23 ft 6 kts 334°
2026-05-03 23:26 31.15734 -81.38880 22 ft 8 kts 313°
2026-05-03 23:26 31.15690 -81.38947 24 ft 30 kts 216°
2026-05-03 23:26 31.15252 -81.39316 22 ft 126 kts 216°
2026-05-03 23:26 31.14379 -81.40042 552 ft 173 kts 217°
2026-05-03 23:27 31.13274 -81.40830 1704 ft 196 kts 214°
2026-05-03 23:27 31.12024 -81.41694 2811 ft 225 kts 214°
2026-05-03 23:27 31.10527 -81.42748 2970 ft 271 kts 214°
2026-05-03 23:27 31.08911 -81.43887 2877 ft 276 kts 214°
2026-05-03 23:28 31.07274 -81.45038 2866 ft 273 kts 213°
2026-05-03 23:28 31.05726 -81.46283 2847 ft 268 kts 227°
2026-05-03 23:28 31.04918 -81.48195 3581 ft 257 kts 269°
2026-05-03 23:28 31.05310 -81.50090 5773 ft 242 kts 298°
2026-05-03 23:29 31.06506 -81.51524 7440 ft 258 kts 322°
2026-05-03 23:29 31.08297 -81.52140 8989 ft 287 kts 351°
2026-05-03 23:29 31.10345 -81.51617 10360 ft 317 kts 14°
2026-05-03 23:29 31.12460 -81.50508 11371 ft 349 kts 20°
2026-05-03 23:30 31.14708 -81.49150 12379 ft 378 kts 22°
2026-05-03 23:30 31.17141 -81.47742 13462 ft 397 kts 18°
2026-05-03 23:30 31.19689 -81.46440 14901 ft 404 kts 16°
2026-05-03 23:30 31.22304 -81.45108 16145 ft 416 kts 17°
2026-05-03 23:31 31.24960 -81.43673 17436 ft 426 kts 17°
2026-05-03 23:31 31.27643 -81.42205 18573 ft 436 kts 17°
2026-05-03 23:31 31.30454 -81.40707 19626 ft 444 kts 15°
2026-05-03 23:31 31.33298 -81.39207 20662 ft 452 kts 15°
2026-05-03 23:32 31.36186 -81.37663 21684 ft 461 kts 16°
2026-05-03 23:32 31.39086 -81.36101 22637 ft 469 kts 16°
2026-05-03 23:32 31.42083 -81.34494 23573 ft 476 kts 15°
2026-05-03 23:32 31.45127 -81.32868 24356 ft 484 kts 15°
2026-05-03 23:33 31.48219 -81.31206 25141 ft 493 kts 16°
2026-05-03 23:33 31.51348 -81.29477 25970 ft 502 kts 17°
2026-05-03 23:33 31.54529 -81.27705 26673 ft 510 kts 17°
2026-05-03 23:33 31.56670 -81.26527 27100 ft 516 kts 17°
2026-05-03 23:34 31.59948 -81.24738 27808 ft 524 kts 17°
2026-05-03 23:34 31.63283 -81.22908 28509 ft 532 kts 17°
2026-05-03 23:34 31.66666 -81.21036 29211 ft 540 kts 17°
2026-05-03 23:34 31.70090 -81.19142 29895 ft 548 kts 17°
2026-05-03 23:35 31.73562 -81.17230 30527 ft 555 kts 17°
2026-05-03 23:35 31.77066 -81.15295 31331 ft 556 kts 17°
2026-05-03 23:35 31.80540 -81.13364 32403 ft 549 kts 16°
2026-05-03 23:35 31.83992 -81.11451 33321 ft 547 kts 16°
2026-05-03 23:36 31.87426 -81.09559 34184 ft 544 kts 15°
2026-05-03 23:36 31.90856 -81.07661 34926 ft 543 kts 15°
2026-05-03 23:36 31.94268 -81.05764 35622 ft 542 kts 15°
2026-05-03 23:36 31.97681 -81.03868 36281 ft 541 kts 15°
2026-05-03 23:37 32.01083 -81.01980 36906 ft 540 kts 15°
2026-05-03 23:37 32.04433 -81.00118 37559 ft 539 kts 15°
2026-05-03 23:37 32.07834 -80.98227 38052 ft 540 kts 15°
2026-05-03 23:37 32.11232 -80.96333 38574 ft 540 kts 15°
2026-05-03 23:38 32.14644 -80.94430 38985 ft 539 kts 15°
2026-05-03 23:38 32.18026 -80.92543 39415 ft 538 kts 15°
2026-05-03 23:38 32.21328 -80.90684 40563 ft 513 kts 14°
2026-05-03 23:38 32.24495 -80.88905 40964 ft 508 kts 14°
2026-05-03 23:39 32.27662 -80.87154 40974 ft 497 kts 13°
2026-05-03 23:39 32.30756 -80.85427 40982 ft 485 kts 14°
2026-05-03 23:39 32.34047 -80.83571 40978 ft 472 kts 13°
2026-05-03 23:39 32.36725 -80.82067 40972 ft 462 kts 13°
2026-05-03 23:40 32.42487 -80.78862 40975 ft 463 kts 13°
2026-05-03 23:40 32.48411 -80.75533 41274 ft 478 kts 17°
2026-05-03 23:41 32.51412 -80.73830 41151 ft 477 kts 16°
2026-05-03 23:41 32.54405 -80.72140 41123 ft 471 kts 15°
2026-05-03 23:41 32.60243 -80.68859 41104 ft 461 kts 15°
2026-05-03 23:42 32.66020 -80.65601 41096 ft 460 kts 15°
2026-05-03 23:42 32.71842 -80.62294 41073 ft 468 kts 17°
2026-05-03 23:43 32.77699 -80.58811 41079 ft 471 kts 17°
2026-05-03 23:43 32.83492 -80.55373 41068 ft 458 kts 17°
2026-05-03 23:44 32.86289 -80.53694 41038 ft 442 kts 17°
2026-05-03 23:44 32.88986 -80.52088 41059 ft 425 kts 16°
2026-05-03 23:44 32.91583 -80.50551 41060 ft 410 kts 15°
2026-05-03 23:44 32.94099 -80.49055 41061 ft 397 kts 15°
2026-05-03 23:45 32.98934 -80.46175 41065 ft 383 kts 14°
2026-05-03 23:45 33.03789 -80.43297 41084 ft 400 kts 15°
2026-05-03 23:46 33.06311 -80.41788 41108 ft 411 kts 16°
2026-05-03 23:46 33.08891 -80.40237 41095 ft 418 kts 16°
2026-05-03 23:46 33.14059 -80.37134 41097 ft 416 kts 16°
2026-05-03 23:47 33.19195 -80.34057 41081 ft 407 kts 16°
2026-05-03 23:47 33.24373 -80.30951 41079 ft 402 kts 15°
2026-05-03 23:48 33.29238 -80.28032 41082 ft 406 kts 16°
2026-05-03 23:48 33.34292 -80.24989 41096 ft 411 kts 16°
2026-05-03 23:49 33.39391 -80.21913 41093 ft 409 kts 16°
2026-05-03 23:49 33.44451 -80.18862 41091 ft 405 kts 16°
2026-05-03 23:50 33.49442 -80.15846 41090 ft 402 kts 16°
2026-05-03 23:50 33.54475 -80.12808 41098 ft 408 kts 16°
2026-05-03 23:51 33.59578 -80.09714 41108 ft 412 kts 17°
2026-05-03 23:51 33.64668 -80.06611 41094 ft 409 kts 18°
2026-05-03 23:52 33.69600 -80.03193 41096 ft 407 kts 20°
2026-05-03 23:52 33.74478 -79.99822 41101 ft 407 kts 20°
2026-05-03 23:53 33.79402 -79.96400 41085 ft 410 kts 20°
2026-05-03 23:53 33.84360 -79.92953 41090 ft 412 kts 20°
2026-05-03 23:54 33.89296 -79.89513 41087 ft 408 kts 20°
2026-05-03 23:54 33.94193 -79.86101 41080 ft 404 kts 20°
2026-05-03 23:55 33.99026 -79.82729 41081 ft 404 kts 20°
2026-05-03 23:55 34.03918 -79.79310 41069 ft 406 kts 20°
2026-05-03 23:56 34.08878 -79.75847 41102 ft 421 kts 20°
2026-05-03 23:56 34.11449 -79.74047 41100 ft 432 kts 21°
2026-05-03 23:56 34.14043 -79.72225 41099 ft 442 kts 21°
2026-05-03 23:57 34.19473 -79.68412 41104 ft 461 kts 21°
2026-05-03 23:57 34.25153 -79.64555 41106 ft 474 kts 18°
2026-05-03 23:58 34.31150 -79.60867 41103 ft 492 kts 19°
2026-05-03 23:58 34.37327 -79.57010 41102 ft 507 kts 19°
2026-05-03 23:59 34.43655 -79.53078 41099 ft 511 kts 19°
2026-05-03 23:59 34.49942 -79.49152 41095 ft 505 kts 19°
2026-05-04 00:00 34.56126 -79.45296 41092 ft 501 kts 19°
2026-05-04 00:00 34.62326 -79.41418 41086 ft 501 kts 19°
2026-05-04 00:01 34.68541 -79.37527 41091 ft 503 kts 19°
2026-05-04 00:01 34.74743 -79.33632 41091 ft 501 kts 19°
2026-05-04 00:02 34.80931 -79.29745 41097 ft 499 kts 19°
2026-05-04 00:02 34.87017 -79.25908 41090 ft 492 kts 19°
2026-05-04 00:03 34.93071 -79.22094 41078 ft 487 kts 19°
2026-05-04 00:03 34.99116 -79.18278 41061 ft 490 kts 19°
2026-05-04 00:04 35.05159 -79.14453 41070 ft 494 kts 19°
2026-05-04 00:04 35.11253 -79.10588 41066 ft 492 kts 19°
2026-05-04 00:05 35.17326 -79.06733 41070 ft 491 kts 19°
2026-05-04 00:05 35.23384 -79.02880 41057 ft 489 kts 19°
2026-05-04 00:06 35.29426 -78.99032 41067 ft 489 kts 19°
2026-05-04 00:06 35.35430 -78.95199 41072 ft 489 kts 19°
2026-05-04 00:07 35.41468 -78.91340 41077 ft 488 kts 19°
2026-05-04 00:07 35.47504 -78.87476 41085 ft 490 kts 19°
2026-05-04 00:08 35.53555 -78.83594 41090 ft 491 kts 19°
2026-05-04 00:08 35.59618 -78.79699 41092 ft 493 kts 19°
2026-05-04 00:09 35.65633 -78.75579 41088 ft 496 kts 22°
2026-05-04 00:09 35.71646 -78.71413 41098 ft 496 kts 21°
2026-05-04 00:10 35.77598 -78.67263 41069 ft 493 kts 21°
2026-05-04 00:10 35.83554 -78.63114 41070 ft 490 kts 21°
2026-05-04 00:11 35.89504 -78.58959 41082 ft 492 kts 21°
2026-05-04 00:11 35.95497 -78.54764 41125 ft 495 kts 21°
2026-05-04 00:12 36.01443 -78.50596 41103 ft 494 kts 22°
2026-05-04 00:12 36.07410 -78.46406 41101 ft 491 kts 21°
2026-05-04 00:13 36.13340 -78.42236 41096 ft 489 kts 22°
2026-05-04 00:13 36.19271 -78.38058 41118 ft 492 kts 22°
2026-05-04 00:14 36.25244 -78.33844 41082 ft 498 kts 22°
2026-05-04 00:14 36.31318 -78.29549 41082 ft 506 kts 22°
2026-05-04 00:15 36.37386 -78.25245 41083 ft 504 kts 22°
2026-05-04 00:15 36.43418 -78.20826 41080 ft 503 kts 24°
2026-05-04 00:16 36.49397 -78.16365 41078 ft 497 kts 23°
2026-05-04 00:16 36.55354 -78.11986 41070 ft 499 kts 23°
2026-05-04 00:17 36.61338 -78.07523 41130 ft 501 kts 23°
2026-05-04 00:17 36.67344 -78.03071 41137 ft 503 kts 23°
2026-05-04 00:18 36.73269 -77.98645 41132 ft 497 kts 23°
2026-05-04 00:18 36.79191 -77.94236 41109 ft 495 kts 23°
2026-05-04 00:19 36.85146 -77.89783 41102 ft 502 kts 23°
2026-05-04 00:19 36.91159 -77.85277 41068 ft 503 kts 23°
2026-05-04 00:20 36.97126 -77.80798 41080 ft 498 kts 23°
2026-05-04 00:20 37.03058 -77.76340 41077 ft 495 kts 23°
2026-05-04 00:21 37.08975 -77.71886 41103 ft 498 kts 23°
2026-05-04 00:21 37.14890 -77.67421 41098 ft 499 kts 23°
2026-05-04 00:22 37.20842 -77.62922 41099 ft 499 kts 23°
2026-05-04 00:22 37.25816 -77.59156 41078 ft 498 kts 23°
2026-05-04 00:23 37.31706 -77.54688 41075 ft 498 kts 23°
2026-05-04 00:23 37.37634 -77.50183 41078 ft 497 kts 23°
2026-05-04 00:24 37.43542 -77.45685 41077 ft 496 kts 23°
2026-05-04 00:24 37.49441 -77.41186 41067 ft 495 kts 23°
2026-05-04 00:25 37.55342 -77.36678 41070 ft 497 kts 23°
2026-05-04 00:25 37.61384 -77.32765 41064 ft 483 kts 11°
2026-05-04 00:26 37.67790 -77.30872 41078 ft 468 kts 359°
2026-05-04 00:26 37.74235 -77.29555 41080 ft 467 kts 358°
2026-05-04 00:27 37.80642 -77.27608 41069 ft 485 kts 13°
2026-05-04 00:27 37.83723 -77.25743 41068 ft 496 kts 21°
2026-05-04 00:27 37.86670 -77.23437 41072 ft 498 kts 24°
2026-05-04 00:28 37.92536 -77.18727 41056 ft 501 kts 26°
2026-05-04 00:28 37.98319 -77.13887 41061 ft 501 kts 25°
2026-05-04 00:29 38.04191 -77.09103 41055 ft 501 kts 25°
2026-05-04 00:29 38.10031 -77.04243 41055 ft 501 kts 25°
2026-05-04 00:30 38.15842 -76.99457 41050 ft 501 kts 25°
2026-05-04 00:30 38.21685 -76.94600 41051 ft 501 kts 26°
2026-05-04 00:31 38.27527 -76.89753 41048 ft 500 kts 26°
2026-05-04 00:31 38.33371 -76.84888 40828 ft 505 kts 25°
2026-05-04 00:32 38.36302 -76.82451 40306 ft 511 kts 25°
2026-05-04 00:32 38.39284 -76.79960 39755 ft 512 kts 26°
2026-05-04 00:32 38.42293 -76.77437 39181 ft 508 kts 25°
2026-05-04 00:32 38.45235 -76.74975 38604 ft 503 kts 25°
2026-05-04 00:33 38.48142 -76.72546 38009 ft 496 kts 25°
2026-05-04 00:33 38.53792 -76.67810 36944 ft 484 kts 24°
2026-05-04 00:33 38.56609 -76.65450 36415 ft 483 kts 24°
2026-05-04 00:34 38.59432 -76.63085 35903 ft 487 kts 24°
2026-05-04 00:34 38.62276 -76.60696 35349 ft 491 kts 24°
2026-05-04 00:34 38.65136 -76.58282 34813 ft 493 kts 24°
2026-05-04 00:34 38.67998 -76.55865 34260 ft 492 kts 24°
2026-05-04 00:35 38.70858 -76.53454 33672 ft 489 kts 24°
2026-05-04 00:35 38.73686 -76.51068 33129 ft 485 kts 24°
2026-05-04 00:35 38.76460 -76.48724 32603 ft 483 kts 24°
2026-05-04 00:35 38.79273 -76.46350 32108 ft 485 kts 24°
2026-05-04 00:36 38.82103 -76.43958 31543 ft 487 kts 24°
2026-05-04 00:36 38.84944 -76.41545 30998 ft 488 kts 24°
2026-05-04 00:36 38.87770 -76.39145 30458 ft 487 kts 24°
2026-05-04 00:36 38.90562 -76.36776 29898 ft 486 kts 24°
2026-05-04 00:37 38.93379 -76.34382 29352 ft 483 kts 24°
2026-05-04 00:37 38.96173 -76.32005 28816 ft 482 kts 25°
2026-05-04 00:37 38.98978 -76.29620 28284 ft 484 kts 25°
2026-05-04 00:37 39.01788 -76.27226 27754 ft 484 kts 25°
2026-05-04 00:38 39.04580 -76.24838 27211 ft 481 kts 25°
2026-05-04 00:38 39.07369 -76.22455 26684 ft 479 kts 25°
2026-05-04 00:38 39.10153 -76.20081 26157 ft 481 kts 25°
2026-05-04 00:38 39.12945 -76.17696 25627 ft 483 kts 26°
2026-05-04 00:39 39.15747 -76.15292 25093 ft 484 kts 26°
2026-05-04 00:39 39.18511 -76.12919 24570 ft 483 kts 26°
2026-05-04 00:39 39.21289 -76.10532 24047 ft 473 kts 26°
2026-05-04 00:39 39.23974 -76.08214 23510 ft 453 kts 26°
2026-05-04 00:40 39.26529 -76.06013 22995 ft 431 kts 26°
2026-05-04 00:40 39.28982 -76.03911 22522 ft 417 kts 25°
2026-05-04 00:40 39.31815 -76.01489 21984 ft 416 kts 26°
2026-05-04 00:40 39.33813 -75.99772 21606 ft 421 kts 26°
2026-05-04 00:41 39.36254 -75.97661 21138 ft 422 kts 26°
2026-05-04 00:41 39.38684 -75.95553 20672 ft 419 kts 27°
2026-05-04 00:41 39.41092 -75.93471 20223 ft 414 kts 27°
2026-05-04 00:41 39.43472 -75.91417 19756 ft 408 kts 27°
2026-05-04 00:42 39.45823 -75.89384 19309 ft 404 kts 27°
2026-05-04 00:42 39.48150 -75.87367 18866 ft 400 kts 28°
2026-05-04 00:42 39.50456 -75.85368 18428 ft 397 kts 28°
2026-05-04 00:42 39.52715 -75.83407 17968 ft 395 kts 28°
2026-05-04 00:43 39.54985 -75.81436 17592 ft 391 kts 28°
2026-05-04 00:43 39.57241 -75.79476 17172 ft 391 kts 28°
2026-05-04 00:43 39.59501 -75.77513 16748 ft 390 kts 28°
2026-05-04 00:43 39.61747 -75.75556 16315 ft 387 kts 28°
2026-05-04 00:44 39.63967 -75.73619 15890 ft 382 kts 28°
2026-05-04 00:44 39.66167 -75.71702 15469 ft 378 kts 28°
2026-05-04 00:44 39.68336 -75.69811 15058 ft 375 kts 28°
2026-05-04 00:44 39.70492 -75.67929 14647 ft 372 kts 29°
2026-05-04 00:45 39.72631 -75.66060 14239 ft 369 kts 29°
2026-05-04 00:45 39.74756 -75.64201 13833 ft 367 kts 29°
2026-05-04 00:45 39.76868 -75.62353 13403 ft 365 kts 29°
2026-05-04 00:45 39.78966 -75.60508 13079 ft 365 kts 30°
2026-05-04 00:46 39.81080 -75.58540 13092 ft 382 kts 31°
2026-05-04 00:46 39.83272 -75.56530 13090 ft 387 kts 31°
2026-05-04 00:46 39.85465 -75.54514 13096 ft 386 kts 31°
2026-05-04 00:46 39.87649 -75.52491 13096 ft 385 kts 31°
2026-05-04 00:47 39.89825 -75.50473 13096 ft 384 kts 31°
2026-05-04 00:47 39.92007 -75.48455 13092 ft 385 kts 31°
2026-05-04 00:47 39.94192 -75.46432 13090 ft 385 kts 31°
2026-05-04 00:47 39.96375 -75.44407 13097 ft 385 kts 31°
2026-05-04 00:48 39.98562 -75.42376 13116 ft 386 kts 31°
2026-05-04 00:48 40.00737 -75.40355 13096 ft 380 kts 32°
2026-05-04 00:48 40.02853 -75.38386 13091 ft 378 kts 32°
2026-05-04 00:48 40.04993 -75.36397 13088 ft 374 kts 32°
2026-05-04 00:49 40.07085 -75.34444 13075 ft 354 kts 31°
2026-05-04 00:49 40.09004 -75.32651 13066 ft 332 kts 31°
2026-05-04 00:49 40.10840 -75.30937 13061 ft 308 kts 31°
2026-05-04 00:49 40.12507 -75.29385 13065 ft 291 kts 30°
2026-05-04 00:50 40.14145 -75.27863 13025 ft 288 kts 30°
2026-05-04 00:50 40.15810 -75.26318 12786 ft 298 kts 31°
2026-05-04 00:50 40.17512 -75.24733 12478 ft 302 kts 31°
2026-05-04 00:50 40.19207 -75.23145 12158 ft 297 kts 31°
2026-05-04 00:51 40.20867 -75.21592 11836 ft 290 kts 30°
2026-05-04 00:51 40.22491 -75.20078 11523 ft 284 kts 30°
2026-05-04 00:51 40.24091 -75.18585 11185 ft 282 kts 30°
2026-05-04 00:51 40.25692 -75.17090 10852 ft 283 kts 30°
2026-05-04 00:52 40.27301 -75.15586 10470 ft 284 kts 30°
2026-05-04 00:52 40.28903 -75.14081 10091 ft 282 kts 30°
2026-05-04 00:52 40.30483 -75.12598 9703 ft 277 kts 30°
2026-05-04 00:52 40.32021 -75.11127 9328 ft 274 kts 33°
2026-05-04 00:53 40.33382 -75.09336 8960 ft 278 kts 42°
2026-05-04 00:53 40.34699 -75.07469 8593 ft 280 kts 41°
2026-05-04 00:53 40.36042 -75.05602 8225 ft 282 kts 41°
2026-05-04 00:53 40.37386 -75.03720 7852 ft 283 kts 41°
2026-05-04 00:54 40.38723 -75.01833 7470 ft 282 kts 41°
2026-05-04 00:54 40.40056 -74.99953 7088 ft 281 kts 41°
2026-05-04 00:54 40.41361 -74.98111 7033 ft 271 kts 41°
2026-05-04 00:54 40.42655 -74.96296 7031 ft 275 kts 41°
2026-05-04 00:55 40.43959 -74.94469 7034 ft 280 kts 41°
2026-05-04 00:55 40.45293 -74.92586 7037 ft 282 kts 41°
2026-05-04 00:55 40.46628 -74.90697 7038 ft 282 kts 41°
2026-05-04 00:55 40.47965 -74.88809 7035 ft 282 kts 41°
2026-05-04 00:56 40.49300 -74.86927 7019 ft 282 kts 41°
2026-05-04 00:56 40.50638 -74.85037 7018 ft 281 kts 41°
2026-05-04 00:56 40.51969 -74.83155 7016 ft 281 kts 41°
2026-05-04 00:56 40.53300 -74.81273 7015 ft 281 kts 41°
2026-05-04 00:57 40.54629 -74.79391 7012 ft 281 kts 41°
2026-05-04 00:57 40.55959 -74.77508 7016 ft 281 kts 41°
2026-05-04 00:57 40.57292 -74.75619 7015 ft 280 kts 41°
2026-05-04 00:57 40.58616 -74.73739 7015 ft 280 kts 41°
2026-05-04 00:58 40.59944 -74.71866 7018 ft 280 kts 41°
2026-05-04 00:58 40.61331 -74.70048 6841 ft 284 kts 38°
2026-05-04 00:58 40.62763 -74.68253 6594 ft 283 kts 38°
2026-05-04 00:58 40.64187 -74.66484 6344 ft 279 kts 38°
2026-05-04 00:59 40.65599 -74.64739 6078 ft 277 kts 38°
2026-05-04 00:59 40.67003 -74.63013 5812 ft 276 kts 38°
2026-05-04 00:59 40.68399 -74.61293 5551 ft 274 kts 38°
2026-05-04 00:59 40.69790 -74.59576 5292 ft 274 kts 38°
2026-05-04 01:00 40.71178 -74.57865 5037 ft 273 kts 38°
2026-05-04 01:00 40.72567 -74.56212 5010 ft 265 kts 33°
2026-05-04 01:00 40.74065 -74.54799 5017 ft 266 kts 28°
2026-05-04 01:00 40.75614 -74.53434 4843 ft 276 kts 28°
2026-05-04 01:01 40.77216 -74.52034 4584 ft 274 kts 28°
2026-05-04 01:01 40.78792 -74.50655 4356 ft 269 kts 28°
2026-05-04 01:01 40.80347 -74.49304 4094 ft 267 kts 27°
2026-05-04 01:01 40.81879 -74.47967 4049 ft 261 kts 28°
2026-05-04 01:02 40.83405 -74.46642 4051 ft 265 kts 27°
2026-05-04 01:02 40.84961 -74.45294 4053 ft 269 kts 28°
2026-05-04 01:02 40.86530 -74.43938 4054 ft 270 kts 27°
2026-05-04 01:02 40.88103 -74.42585 4056 ft 270 kts 27°
2026-05-04 01:03 40.89676 -74.41234 4052 ft 270 kts 27°
2026-05-04 01:03 40.91244 -74.39888 4040 ft 268 kts 27°
2026-05-04 01:03 40.92801 -74.38548 4047 ft 267 kts 27°
2026-05-04 01:03 40.94359 -74.37192 4044 ft 269 kts 27°
2026-05-04 01:04 40.95924 -74.35823 4045 ft 270 kts 27°
2026-05-04 01:04 40.97495 -74.34449 4042 ft 269 kts 27°
2026-05-04 01:04 40.98997 -74.32975 4028 ft 271 kts 38°
2026-05-04 01:04 41.00137 -74.30909 3809 ft 283 kts 54°
2026-05-04 01:05 41.01088 -74.28642 3578 ft 280 kts 57°
2026-05-04 01:05 41.02004 -74.26379 3344 ft 278 kts 57°
2026-05-04 01:05 41.02912 -74.24128 3111 ft 277 kts 58°
2026-05-04 01:05 41.03795 -74.21880 3021 ft 273 kts 63°
2026-05-04 01:06 41.04063 -74.19363 3013 ft 283 kts 94°
2026-05-04 01:06 41.03657 -74.16864 3024 ft 270 kts 105°
2026-05-04 01:06 41.03158 -74.14550 3013 ft 253 kts 106°
2026-05-04 01:06 41.02671 -74.12368 2834 ft 241 kts 106°
2026-05-04 01:07 41.02225 -74.10369 2604 ft 216 kts 107°
2026-05-04 01:07 41.01820 -74.08539 2351 ft 206 kts 106°
2026-05-04 01:07 41.01419 -74.06739 2063 ft 203 kts 106°
2026-05-04 01:07 41.01092 -74.05579 2004 ft 196 kts 121°
2026-05-04 01:08 40.99670 -74.04328 2008 ft 187 kts 177°
2026-05-04 01:08 40.98403 -74.04464 2032 ft 182 kts 194°
2026-05-04 01:08 40.97119 -74.04714 1920 ft 189 kts 197°
2026-05-04 01:08 40.95839 -74.05043 1802 ft 186 kts 197°
2026-05-04 01:09 40.94972 -74.05210 1704 ft 187 kts 187°
2026-05-04 01:09 40.93692 -74.05218 1527 ft 178 kts 187°
2026-05-04 01:09 40.92505 -74.05320 1312 ft 165 kts 191°
2026-05-04 01:09 40.91394 -74.05454 1100 ft 153 kts 187°
2026-05-04 01:10 40.90454 -74.05534 950 ft 126 kts 189°
2026-05-04 01:10 40.89608 -74.05600 806 ft 118 kts 188°
2026-05-04 01:10 40.88795 -74.05669 667 ft 116 kts 187°
2026-05-04 01:10 40.87988 -74.05723 511 ft 117 kts 188°
2026-05-04 01:11 40.87193 -74.05787 377 ft 113 kts 189°
2026-05-04 01:11 40.86420 -74.05845 224 ft 109 kts 186°
2026-05-04 01:11 40.85668 -74.05905 60 ft 107 kts 185°
2026-05-04 01:11 40.85029 -74.05952 6 ft 71 kts 183°
2026-05-04 01:12 40.84654 -74.05980 9 ft 45 kts 183°
2026-05-04 01:12 40.84395 -74.05999 12 ft 27 kts 186°
2026-05-04 01:12 40.84271 -74.06108 9 ft 15 kts 228°
2026-05-04 01:12 40.84240 -74.06211 9 ft 13 kts 271°
2026-05-04 01:13 40.84246 -74.06340 15 ft 14 kts 274°
2026-05-04 01:13 40.84243 -74.06454 17 ft 11 kts 236°
2026-05-04 01:13 40.84174 -74.06517 17 ft 12 kts 241°
2026-05-04 01:13 40.84180 -74.06557 17 ft 0 kts 298°